Showing default

CHINASAT 3B, 64062

Orbit data source: Space-Track

CHINASAT 3B, 64062 is a payload satellite owned by PLA SSF (CN) in GEO that was launched on Tue, 20 May 2025 UTC via a CHANG ZHENG 7A launch vehicle from the Wenchang Satellite Launch Center (WSC). Payload-class satellites include a variety of spacecraft equipped with specific instruments for various scientific and technological missions. These include communications satellites like Starlink; space stations such as the ISS; scientific satellites like the Hubble; Earth observation satellites from companies like Planet Labs, Umbra, and HawkEye 360; GPS; miniature CubeSats for education and research; and military/defense satellites.

Not visible in the next 10 days
Identifier
64062, 2025-106A
Orbit
GEO
Last TLE update
11 hours ago
Origin
Manufacturer
SISE
Mission
Operational spacecraft
Bus & Motor
FY-4?, LAE
Mass
~5,000 kg wet, ~2,500 kg dry
Launch date (UTC)
2025-05-20 (1 month ago)
Launch vehicle
CHANG ZHENG 7A
Launch site
Wenchang Satellite Launch Center (WSC)
Object type
Payload
Rocket body
Debris
Shape & HBR
Unknown
Radar Cross Section
Large (>1 m²)

Expand to show TLE details & history

TLE from 11 hours ago
0 CHINASAT 3B
1 64062U 25106A   25169.82248270 -.00000034  00000-0  00000-0 0  9996
2 64062   0.0357  92.7045 0001970 157.4456 120.5378  1.00270191   413
Epoch: 2025-06-18T19:44Z
TLE epoch observation values (Epoch: 2025-06-18T19:44:22.505Z)
Latitude
-0.0237°
Longitude
167.3107°
Altitude
35,790.757 km
Speed
3.074 km/s
True Right ascension
00h 42m 48s
True Declination
0° 01' 25"
Sunlit
Object was in daylight at epoch
Visualization orbit readout
Latitude
0.03001°
Longitude
-32.92162°
Altitude
35,785.039 km
Speed
3.075 km/s
Apparent Right ascension
10h 55m 16s
Apparent Declination
-5° 28' 29"
Sunlit
Object is in daylight
Visualization observer readout
Local Sidereal Time
17:12:20
Azimuth
268.521° W
Elevation
-6.779°
Doppler factor
1
Orbital elements
Apogee altitude
35,796.419 km
Perigee altitude
35,779.805 km
Semi-major axis
42,166.249 km
Eccentricity
0.0002
Inclination
0.0357°
RAAN
92.7045°
Arg. of periapsis
157.4456°
True anomaly
Unknown
Mean anomaly
120.5378°
Eccentric anomaly
Unknown
Mean motion
0.25067 °/min
Orbital period
1,436.17 mins
BSTAR
0
Loading historical data...
64062 neighbors
Loading maneuver chart data...
Loading SW <> Apogee altitude chart data...
Loading historical data...
Loading historical data...
Loading historical data...
Loading historical data...
Loading historical data...
Loading historical data...
Loading historical data...
Other satellites on launch #106 in the year 2025 (2025-05-20 UTC)

CHINASAT 3B Visibility

Observer location: undefined°, undefined°

CHINASAT 3B is likely not visible in the next few days
Span
Click to sort rows by Start time (UTC) header in descending order
Start Az.
Max El. time (UTC)
Max El. Az.
Max El.
End time (UTC)
End Az.
|